[[{"header":{"parameterUnit":"m.s-1","parameterCategory":1,"la1":30.2992,"la2":30.254,"lo1":-89.0895,"lo2":-89.0443,"dy":0.0025,"dx":0.0025,"nx":19,"ny":19,"refTime":"2026-03-22T03:00:00:Z","depth":0,"parameterNumber":2,"parameterNumberName":"U-component_of_WINDS"},"data":[0,0,0,0.5426,0.543,0.5644,0.5645,0.5881,0.5883,0,0,0,0,0,0,0,0,0,0,0,0.5337,0.5338,0.5426,0.543,0.5644,0.5645,0.588,0.5883,0,0,0,0,0,0,0,0,0,0,0,0.5337,0.5337,0.5338,0.5431,0.5644,0.5645,0.588,0.5733,0,0,0,0,0,0,0,0,0,0,0.5532,0.5424,0.5337,0.5338,0.5432,0.5644,0.5646,0.5726,0.5742,0.5767,0,0.578,0,0.5835,0.5896,0.5896,0,0,0,0.545,0.541,0.5491,0.5338,0.5434,0.5643,0.5553,0.5735,0.5753,0.5787,0.5784,0.5794,0.5838,0.5897,0.5898,0.5972,0.5972,0,0,0.5438,0.5362,0.5479,0.5501,0.5463,0.5546,0.556,0.5747,0.5739,0.5785,0.58,0.5842,0.5898,0.59,0.5973,0.5972,0,0,0,0.5391,0.5353,0.543,0.549,0.5532,0.5552,0.5567,0.573,0.5762,0.5803,0.5845,0.5899,0.5902,0.5974,0.5973,0.587,0,0,0,0.5385,0.5325,0.5424,0.5379,0.5527,0.5633,0.5546,0.5749,0.5772,0.5844,0.5899,0.5904,0.5975,0.5973,0.5874,0.5834,0,0,0,0.5332,0.532,0.5342,0.5375,0.5464,0.5632,0.5675,0.5756,0.5797,0.5896,0.5904,0.5975,0.5974,0.5878,0.5841,0.5832,0,0,0,0.5254,0.5247,0.5339,0.5349,0.5462,0.5566,0.5675,0.5757,0.583,0.59,0.5974,0.5973,0.588,0.5845,0.5835,0.581,0.5792,0,0,0.5203,0.5238,0.525,0.5339,0.5407,0.554,0.5596,0.5735,0.5814,0.5916,0.5919,0.5873,0.5841,0.5833,0.5721,0.5706,0,0,0,0.5208,0.5216,0.5251,0.5316,0.5422,0.5511,0.5649,0.5702,0.5792,0.585,0.587,0.5854,0.5852,0.5843,0.5831,0.5835,0.5966,0.5966,0.5966,0.5026,0.5129,0.5156,0.5285,0.5347,0.5492,0.5553,0.5649,0.5734,0.5737,0.5767,0.5687,0.5674,0.5665,0.5668,0.5763,0.5763,0.5763,0.5762,0.4961,0.4988,0.5104,0.5171,0.5281,0.534,0.5481,0.554,0.5612,0.5672,0.5676,0.5731,0.5646,0.5654,0.5756,0.5757,0.5758,0.5758,0.5759,0.4852,0.4884,0.4947,0.5054,0.5126,0.5259,0.5323,0.5422,0.5515,0.5518,0.5562,0.5564,0.5578,0.5532,0.5532,0.5532,0.5532,0.5531,0.5531,0.4714,0.479,0.4831,0.4944,0.5001,0.5088,0.5236,0.5295,0.5386,0.5453,0.5454,0.5539,0.5618,0.5636,0.5527,0.5528,0.5529,0.5529,0.5529,0.4608,0.4649,0.4711,0.4768,0.4912,0.4977,0.5103,0.5216,0.528,0.5309,0.5395,0.5438,0.5481,0.5492,0.5507,0.5372,0.5372,0.5372,0.5372,0.4516,0.4548,0.4637,0.4721,0.4815,0.4935,0.5007,0.5123,0.525,0.5297,0.5331,0.536,0.5367,0.5407,0.5419,0.5435,0.5285,0.5285,0.5285,0.4458,0.4504,0.4544,0.4667,0.4788,0.489,0.4961,0.5055,0.5208,0.5283,0.5336,0.5339,0.5388,0.5398,0.5471,0.5488,0.5519,0,0]},{"header":{"parameterUnit":"m.s-1","parameterCategory":1,"la1":30.2992,"la2":30.254,"lo1":-89.0895,"lo2":-89.0443,"dy":0.0025,"dx":0.0025,"nx":19,"ny":19,"refTime":"2026-03-22T03:00:00:Z","depth":0,"parameterNumber":3,"parameterNumberName":"V-component_of_WINDS"},"data":[0,0,0,-1.0703,-1.0701,-1.0635,-1.0635,-1.0531,-1.053,0,0,0,0,0,0,0,0,0,0,0,-1.0712,-1.0711,-1.0703,-1.0701,-1.0635,-1.0635,-1.0532,-1.053,0,0,0,0,0,0,0,0,0,0,0,-1.0713,-1.0712,-1.071,-1.0701,-1.0635,-1.0635,-1.0532,-1.0588,0,0,0,0,0,0,0,0,0,0,-1.0655,-1.0654,-1.0712,-1.071,-1.0701,-1.0635,-1.0635,-1.0591,-1.0584,-1.0554,0,-1.0525,0,-1.0526,-1.0522,-1.0522,0,0,0,-1.0708,-1.0659,-1.0652,-1.071,-1.07,-1.0635,-1.0667,-1.0588,-1.058,-1.0545,-1.0524,-1.0521,-1.0525,-1.0522,-1.0521,-1.0328,-1.0327,0,0,-1.0711,-1.0694,-1.0657,-1.0646,-1.0658,-1.0669,-1.0665,-1.0583,-1.0558,-1.0524,-1.0518,-1.0523,-1.0521,-1.052,-1.0329,-1.0328,0,0,0,-1.0718,-1.0696,-1.0691,-1.065,-1.064,-1.0667,-1.0662,-1.0562,-1.0562,-1.0517,-1.0522,-1.052,-1.0519,-1.0331,-1.0329,-1.0251,0,0,0,-1.072,-1.07,-1.0692,-1.068,-1.0641,-1.06,-1.0642,-1.0567,-1.0559,-1.0522,-1.052,-1.0517,-1.0332,-1.033,-1.0256,-1.0215,0,0,0,-1.072,-1.07,-1.0688,-1.068,-1.0651,-1.0602,-1.0597,-1.0566,-1.0561,-1.0522,-1.0517,-1.0333,-1.033,-1.0261,-1.0223,-1.0159,0,0,0,-1.0714,-1.0617,-1.0686,-1.058,-1.0652,-1.0557,-1.0598,-1.0528,-1.0485,-1.0519,-1.0332,-1.0329,-1.0262,-1.0227,-1.0163,-1.0099,-1.0071,0,0,-1.0582,-1.0601,-1.054,-1.06,-1.0489,-1.0568,-1.0445,-1.0421,-1.0432,-1.0362,-1.0357,-1.0255,-1.0223,-1.016,-0.9931,-0.9909,0,0,0,-1.0492,-1.0448,-1.0423,-1.0383,-1.0366,-1.0347,-1.0346,-1.0338,-1.028,-1.0394,-1.0217,-1.0199,-1.0162,-1.0132,-1.0113,-1.0082,-1.0316,-1.0316,-1.0316,-1.0274,-1.0299,-1.02,-1.0217,-1.0179,-1.0182,-1.0152,-1.0141,-1.0173,-1.0132,-1.0109,-0.9968,-0.9932,-0.9918,-0.9885,-1.0081,-1.008,-1.008,-1.008,-1.0079,-1.0019,-1.0072,-0.9994,-1.0021,-0.9955,-0.9956,-0.9982,-0.9923,-0.9986,-0.9955,-1.0017,-0.9893,-0.9866,-1.0074,-1.0075,-1.0076,-1.0077,-1.0077,-0.9935,-0.9911,-0.9907,-0.9857,-0.9815,-0.9837,-0.9781,-0.9807,-0.983,-0.98,-0.9778,-0.978,-0.9781,-0.979,-0.9789,-0.9789,-0.9788,-0.9788,-0.9787,-0.9784,-0.9783,-0.9733,-0.9713,-0.9693,-0.9671,-0.9678,-0.9659,-0.9644,-0.9667,-0.9667,-0.9702,-0.9879,-0.9921,-0.978,-0.9781,-0.9782,-0.9783,-0.9783,-0.9568,-0.9624,-0.9546,-0.9527,-0.9507,-0.9464,-0.9503,-0.9463,-0.9451,-0.9423,-0.9468,-0.9596,-0.9615,-0.963,-0.9664,-0.9465,-0.9465,-0.9465,-0.9465,-0.9443,-0.9459,-0.9388,-0.9356,-0.9329,-0.9358,-0.9269,-0.9276,-0.929,-0.9285,-0.9319,-0.9369,-0.9383,-0.9393,-0.9414,-0.9445,-0.9195,-0.9195,-0.9195,-0.931,-0.9326,-0.9244,-0.9264,-0.9252,-0.924,-0.9158,-0.9119,-0.9147,-0.9184,-0.928,-0.9292,-0.9372,-0.9398,-0.9429,-0.946,-0.9519,0,0]}]]